Weather History for KVLD - December, 2013

Change the Weather History Date:

Tuesday, December 3, 2013

  Actual Average Record
Temperature  
Mean Temperature 64 °F 56 °F  
Max Temperature 79 °F 67 °F 82 °F (1998)
Min Temperature 48 °F 44 °F 28 °F (2008)
Degree Days  
Heating Degree Days 1 10  
Month to date heating degree days 10 30  
Since 1 July heating degree days 176 261  
Growing Degree Days 13 (Base 50)    
Moisture  
Dew Point 52 °F    
Average Humidity 67    
Maximum Humidity 89    
Minimum Humidity 45    
Precipitation  
Precipitation 0.00 in 0.12 in 1.40 in (1997)
Month to date precipitation 0.00 0.33  
Year to date precipitation 41.34 47.76  
Sea Level Pressure  
Sea Level Pressure 29.93 in    
Wind  
Wind Speed 5 mph (South)    
Max Wind Speed 14 mph    
Max Gust Speed 18 mph    
Visibility 8 miles    
Events      
T = Trace of Precipitation, MM = Missing Value Source: NWS Daily Summary

Daily Weather History Graph

Daily Weather History Graph

Search for Another Location

Airport or City:

Trip Planner

Search our weather history database for the weather conditions in past years. The results will help you decide how hot, cold, wet, or windy it might be!

Date:

Astronomy

Dec. 03, 2013 Rise Set
Actual Time 7:14 AM EST 5:31 PM EST
Civil Twilight 6:48 AM EST 5:57 PM EST
Nautical Twilight 6:18 AM EST 6:27 PM EST
Astronomical Twilight 5:49 AM EST 6:56 PM EST
Moon 7:44 AM EST (12/3) 6:31 PM EST (12/3)
Length of Visible Light 11h 08m
Length of Day
10h 16m
New Moon, 1% of the Moon is Illuminated
Dec 3
New Moon
Dec 9
First Quarter
Dec 17
Full
Dec 25
Last Quarter
Jan 1
New

Hourly Weather History & Observations

Time (EST) Temp. Dew Point Humidity Pressure Visibility Wind Dir Wind Speed Gust Speed Precip Events Conditions
12:36 AM 48.2 °F 42.8 °F 82% 29.91 in 5.0 mi Calm Calm - N/A   Haze
12:53 AM 48.9 °F 44.1 °F 83% 29.93 in 6.0 mi Calm Calm - N/A   Haze
1:53 AM 48.0 °F 45.0 °F 89% 29.93 in 5.0 mi Calm Calm - N/A   Mostly Cloudy
2:53 AM 50.0 °F 46.0 °F 86% 29.91 in 7.0 mi Calm Calm - N/A   Overcast
3:53 AM 50.0 °F 46.0 °F 86% 29.91 in 6.0 mi South 3.5 mph - N/A   Mostly Cloudy
4:23 AM 50.0 °F 46.4 °F 87% 29.89 in 3.0 mi Calm Calm - N/A   Mostly Cloudy
4:53 AM 48.9 °F 45.0 °F 86% 29.91 in 5.0 mi South 5.8 mph - N/A   Scattered Clouds
5:24 AM 51.8 °F 48.2 °F 88% 29.89 in 4.0 mi Calm Calm - N/A   Mostly Cloudy
5:34 AM 50.0 °F 46.4 °F 87% 29.89 in 4.0 mi South 5.8 mph - N/A   Scattered Clouds
5:53 AM 52.0 °F 48.9 °F 89% 29.92 in 4.0 mi South 5.8 mph - N/A   Partly Cloudy
6:53 AM 53.1 °F 50.0 °F 89% 29.94 in 4.0 mi Calm Calm - N/A   Overcast
7:53 AM 54.0 °F 50.0 °F 86% 29.94 in 4.0 mi South 4.6 mph - N/A   Mostly Cloudy
8:53 AM 59.0 °F 54.0 °F 83% 29.96 in 8.0 mi South 5.8 mph - N/A   Partly Cloudy
9:53 AM 66.0 °F 54.0 °F 65% 29.98 in 10.0 mi South 9.2 mph - 0.01 in   Partly Cloudy
10:53 AM 71.1 °F 55.0 °F 57% 29.98 in 10.0 mi South 11.5 mph 16.1 mph N/A   Partly Cloudy
11:53 AM 73.0 °F 55.9 °F 55% 29.96 in 10.0 mi South 8.1 mph - N/A   Partly Cloudy
12:53 PM 77.0 °F 55.9 °F 48% 29.93 in 10.0 mi SSW 6.9 mph 18.4 mph N/A   Scattered Clouds
1:53 PM 78.1 °F 55.0 °F 45% 29.91 in 10.0 mi SSW 4.6 mph - N/A   Mostly Cloudy
2:53 PM 77.0 °F 55.9 °F 48% 29.91 in 10.0 mi Variable 6.9 mph - N/A   Overcast
3:53 PM 75.0 °F 55.9 °F 51% 29.89 in 10.0 mi South 12.7 mph 17.3 mph N/A   Partly Cloudy
4:53 PM 73.9 °F 57.0 °F 55% 29.90 in 10.0 mi South 10.4 mph - N/A   Mostly Cloudy
5:53 PM 70.0 °F 57.0 °F 63% 29.92 in 10.0 mi South 5.8 mph - N/A   Clear
6:53 PM 66.0 °F 57.0 °F 73% 29.95 in 10.0 mi Calm Calm - N/A   Clear
7:53 PM 63.0 °F 57.0 °F 81% 29.96 in 10.0 mi Calm Calm - N/A   Clear
8:53 PM 59.0 °F 54.0 °F 83% 29.97 in 10.0 mi Calm Calm - N/A   Clear
9:53 PM 62.1 °F 57.9 °F 86% 29.96 in 10.0 mi South 5.8 mph - N/A   Mostly Cloudy
10:53 PM 60.1 °F 55.9 °F 86% 29.98 in 10.0 mi South 5.8 mph - N/A   Clear
11:53 PM 60.1 °F 55.9 °F 86% 29.98 in 9.0 mi South 5.8 mph - N/A   Scattered Clouds